Time,TemperatureF,DewpointF,PressureIn,WindDirection,WindDirectionDegrees,WindSpeedMPH,WindSpeedGustMPH,Humidity,HourlyPrecipIn,Conditions,Clouds,dailyrainin,SoftwareType,DateUTC
2013-05-14 09:02:00,52.0,50.0,25.92,NE,40,4.0,10.0,94,0.00,,,0.00,,2013-05-14 16:02:00,
2013-05-14 09:12:00,52.0,50.0,25.92,NE,40,4.0,10.0,94,0.00,,,0.00,,2013-05-14 16:12:00,
2013-05-14 09:22:00,53.0,50.0,25.95,NNE,22,6.0,13.0,89,0.00,,,0.00,,2013-05-14 16:22:00,
2013-05-14 09:33:00,54.0,51.0,25.93,NW,306,3.0,10.0,88,0.00,,,0.00,,2013-05-14 16:33:00,
2013-05-14 09:43:00,54.0,51.0,25.93,NW,306,3.0,10.0,88,0.00,,,0.00,,2013-05-14 16:43:00,
2013-05-14 09:54:00,54.0,51.0,25.93,NW,306,3.0,10.0,88,0.00,,,0.00,,2013-05-14 16:54:00,
2013-05-14 10:03:00,54.0,51.0,25.93,NW,306,3.0,10.0,88,0.00,,,0.00,,2013-05-14 17:03:00,
2013-05-14 10:24:00,56.0,49.0,25.95,NNE,32,4.0,9.0,77,0.00,,,0.00,,2013-05-14 17:24:00,
2013-05-14 10:32:00,57.0,50.0,25.92,NNW,341,2.0,10.0,77,0.00,,,0.00,,2013-05-14 17:32:00,
2013-05-14 10:43:00,57.0,50.0,25.92,NNW,341,2.0,10.0,77,0.00,,,0.00,,2013-05-14 17:43:00,
2013-05-14 10:52:00,57.0,51.0,25.98,WNW,302,4.0,10.0,80,0.00,,,0.00,,2013-05-14 17:52:00,
2013-05-14 11:01:00,57.0,51.0,25.98,WNW,302,4.0,10.0,80,0.00,,,0.00,,2013-05-14 18:01:00,
2013-05-14 11:12:00,57.0,51.0,25.98,WNW,302,4.0,10.0,80,0.00,,,0.00,,2013-05-14 18:12:00,
2013-05-14 11:22:00,57.0,51.0,25.98,WNW,302,4.0,10.0,80,0.00,,,0.00,,2013-05-14 18:22:00,
2013-05-14 11:32:00,56.0,49.0,25.92,NW,323,4.0,11.0,78,0.00,,,0.00,,2013-05-14 18:32:00,
2013-05-14 11:42:00,56.0,49.0,25.92,NW,323,4.0,11.0,78,0.00,,,0.00,,2013-05-14 18:42:00,
2013-05-14 11:52:00,56.0,49.0,25.92,NW,323,4.0,11.0,78,0.00,,,0.00,,2013-05-14 18:52:00,
2013-05-14 12:01:00,56.0,49.0,25.92,NW,323,4.0,11.0,78,0.00,,,0.00,,2013-05-14 19:01:00,
2013-05-14 12:11:00,56.0,49.0,25.92,NW,323,4.0,11.0,78,0.00,,,0.00,,2013-05-14 19:11:00,
2013-05-14 12:22:00,56.0,47.0,25.90,NW,324,8.0,15.0,71,0.00,,,0.00,,2013-05-14 19:22:00,
2013-05-14 12:31:00,55.0,47.0,25.94,NW,322,6.0,16.0,75,0.00,,,0.00,,2013-05-14 19:31:00,
2013-05-14 12:42:00,55.0,47.0,25.94,NW,322,6.0,16.0,75,0.00,,,0.00,,2013-05-14 19:42:00,
2013-05-14 12:52:00,56.0,48.0,25.92,NW,319,6.0,17.0,75,0.00,,,0.00,,2013-05-14 19:52:00,
2013-05-14 13:02:00,57.0,48.0,25.91,NW,315,4.0,12.0,72,0.00,,,0.00,,2013-05-14 20:02:00,
2013-05-14 13:11:00,57.0,48.0,25.91,NW,315,4.0,12.0,72,0.00,,,0.00,,2013-05-14 20:11:00,
2013-05-14 13:22:00,57.0,48.0,25.91,NW,315,4.0,12.0,72,0.00,,,0.00,,2013-05-14 20:22:00,
2013-05-14 13:32:00,58.0,49.0,25.91,NNW,338,5.0,15.0,72,0.00,,,0.00,,2013-05-14 20:32:00,
2013-05-14 13:44:00,58.0,49.0,25.91,NNW,338,5.0,15.0,72,0.00,,,0.00,,2013-05-14 20:44:00,
2013-05-14 13:52:00,58.0,49.0,25.91,NNW,338,5.0,15.0,72,0.00,,,0.00,,2013-05-14 20:52:00,
2013-05-14 14:03:00,56.0,47.0,25.92,NW,308,9.0,18.0,72,0.00,,,0.00,,2013-05-14 21:03:00,
2013-05-14 14:12:00,56.0,47.0,25.92,NW,308,9.0,18.0,72,0.00,,,0.00,,2013-05-14 21:12:00,
2013-05-14 14:22:00,56.0,47.0,25.92,NW,308,9.0,18.0,72,0.00,,,0.00,,2013-05-14 21:22:00,
2013-05-14 14:33:00,56.0,48.0,25.91,NW,320,7.0,16.0,74,0.00,,,0.00,,2013-05-14 21:33:00,
2013-05-14 14:42:00,56.0,48.0,25.91,NW,320,7.0,16.0,74,0.00,,,0.00,,2013-05-14 21:42:00,
2013-05-14 14:53:00,56.0,47.0,25.85,NW,318,10.0,17.0,73,0.00,,,0.00,,2013-05-14 21:53:00,
2013-05-14 15:03:00,56.0,49.0,25.87,WNW,295,9.0,18.0,77,0.00,,,0.00,,2013-05-14 22:03:00,
2013-05-14 15:13:00,56.0,49.0,25.87,WNW,295,9.0,18.0,77,0.00,,,0.00,,2013-05-14 22:13:00,
2013-05-14 15:24:00,56.0,49.0,25.88,NW,315,8.0,18.0,76,0.00,,,0.00,,2013-05-14 22:24:00,
2013-05-14 15:34:00,57.0,50.0,25.89,NW,321,6.0,14.0,77,0.00,,,0.00,,2013-05-14 22:34:00,
2013-05-14 15:44:00,57.0,50.0,25.89,NW,321,6.0,14.0,77,0.00,,,0.00,,2013-05-14 22:44:00,
2013-05-14 15:54:00,57.0,50.0,25.89,NW,321,6.0,14.0,77,0.00,,,0.00,,2013-05-14 22:54:00,
2013-05-14 16:03:00,56.0,49.0,25.87,NW,317,6.0,17.0,76,0.00,,,0.00,,2013-05-14 23:03:00,
2013-05-14 16:12:00,56.0,49.0,25.87,NW,317,6.0,17.0,76,0.00,,,0.00,,2013-05-14 23:12:00,
2013-05-14 16:21:00,56.0,49.0,25.85,NW,308,9.0,17.0,76,0.00,,,0.00,,2013-05-14 23:21:00,
2013-05-14 16:31:00,56.0,49.0,25.85,NW,308,9.0,17.0,76,0.00,,,0.00,,2013-05-14 23:31:00,
2013-05-14 16:44:00,56.0,49.0,25.85,NW,308,9.0,17.0,76,0.00,,,0.00,,2013-05-14 23:44:00,
2013-05-14 16:52:00,56.0,49.0,25.88,NW,321,6.0,17.0,77,0.00,,,0.00,,2013-05-14 23:52:00,
2013-05-14 17:01:00,56.0,49.0,25.87,NW,306,7.0,15.0,78,0.00,,,0.00,,2013-05-15 00:01:00,
2013-05-14 17:11:00,56.0,49.0,25.87,NW,306,7.0,15.0,78,0.00,,,0.00,,2013-05-15 00:11:00,
2013-05-14 17:21:00,56.0,49.0,25.87,NW,306,7.0,15.0,78,0.00,,,0.00,,2013-05-15 00:21:00,
2013-05-14 17:32:00,56.0,49.0,25.87,WNW,299,7.0,14.0,78,0.00,,,0.00,,2013-05-15 00:32:00,
2013-05-14 17:42:00,56.0,49.0,25.87,WNW,299,7.0,14.0,78,0.00,,,0.00,,2013-05-15 00:42:00,
2013-05-14 17:52:00,56.0,49.0,25.87,WNW,299,7.0,14.0,78,0.00,,,0.00,,2013-05-15 00:52:00,
2013-05-14 18:01:00,54.0,49.0,25.88,NW,317,8.0,17.0,82,0.00,,,0.00,,2013-05-15 01:01:00,
2013-05-14 18:11:00,54.0,49.0,25.88,NW,317,8.0,17.0,82,0.00,,,0.00,,2013-05-15 01:11:00,
2013-05-14 18:21:00,54.0,49.0,25.90,NW,312,7.0,18.0,82,0.00,,,0.00,,2013-05-15 01:21:00,
2013-05-14 18:31:00,54.0,49.0,25.90,NW,312,7.0,18.0,82,0.00,,,0.00,,2013-05-15 01:31:00,
2013-05-14 18:42:00,54.0,49.0,25.90,NW,312,7.0,18.0,82,0.00,,,0.00,,2013-05-15 01:42:00,
2013-05-14 18:51:00,54.0,49.0,25.90,NW,312,7.0,18.0,82,0.00,,,0.00,,2013-05-15 01:51:00,
2013-05-14 19:01:00,53.0,48.0,25.94,NW,325,6.0,14.0,84,0.00,,,0.00,,2013-05-15 02:01:00,
2013-05-14 19:11:00,53.0,48.0,25.94,NW,325,6.0,14.0,84,0.00,,,0.00,,2013-05-15 02:11:00,
2013-05-14 19:21:00,53.0,48.0,25.94,NW,325,6.0,14.0,84,0.00,,,0.00,,2013-05-15 02:21:00,
2013-05-14 19:31:00,54.0,49.0,25.89,NNW,327,5.0,11.0,84,0.00,,,0.00,,2013-05-15 02:31:00,
2013-05-14 19:41:00,54.0,49.0,25.89,NNW,327,5.0,11.0,84,0.00,,,0.00,,2013-05-15 02:41:00,
2013-05-14 19:52:00,54.0,49.0,25.89,NNW,327,5.0,11.0,84,0.00,,,0.00,,2013-05-15 02:52:00,
2013-05-14 20:01:00,54.0,49.0,25.89,NNW,327,5.0,11.0,84,0.00,,,0.00,,2013-05-15 03:01:00,